IST,Max TemperatureF,Mean TemperatureF,Min TemperatureF,Max Dew PointF,MeanDew PointF,Min DewpointF,Max Humidity, Mean Humidity, Min Humidity, Max Sea Level PressureIn, Mean Sea Level PressureIn, Min Sea Level PressureIn, Max VisibilityMiles, Mean VisibilityMiles, Min VisibilityMiles, Max Wind SpeedMPH, Mean Wind SpeedMPH, Max Gust SpeedMPH,PrecipitationIn, CloudCover, Events, WindDirDegrees
2013-2-1,68,55,42,64,55,43,100,96,78,30.14,30.08,30.04,1,0,0,7,1,,0.00,4,Fog,305
2013-2-2,72,60,49,64,57,52,100,81,43,30.12,30.06,30.01,2,2,0,9,3,,0.00,5,Fog,265
2013-2-3,65,56,46,64,55,46,100,100,98,30.04,30.01,29.98,1,1,0,7,1,,0.04,7,Fog-Rain,308
2013-2-4,65,56,46,64,55,-51,100,96,4,30.01,29.96,29.91,3,2,1,21,7,33,0.01,7,Rain,107
2013-2-5,64,57,46,64,55,46,100,91,68,30.18,29.92,29.77,4,3,2,28,11,40,0.00,5,Rain-Thunderstorm,138
2013-2-6,68,54,41,59,50,43,100,89,50,30.19,30.13,30.09,4,3,2,14,6,,0.00,1,,315
2013-2-7,67,53,39,59,50,41,100,91,64,30.18,30.10,30.05,4,2,0,9,2,,0.00,,Fog,297
2013-2-8,69,54,38,59,48,-60,100,88,4,30.09,30.04,30.00,4,2,0,12,2,38,0.00,1,Fog,289
2013-2-9,70,54,38,57,49,39,100,82,40,30.08,30.02,29.97,4,2,0,10,2,,0.00,1,Fog,286
2013-2-10,69,54,39,59,51,41,100,82,42,30.10,30.06,30.01,4,2,0,7,1,16,0.00,2,Fog,265
2013-2-11,68,54,41,59,52,41,100,87,51,30.12,30.05,29.99,2,1,0,7,1,,0.00,5,Fog,312
2013-2-12,71,56,42,63,52,45,100,84,39,30.12,30.06,29.95,4,2,0,8,1,,0.00,3,Fog,297
2013-2-13,73,60,46,57,53,48,100,82,44,30.09,30.03,29.97,4,2,1,9,2,,0.00,3,,296
2013-2-14,72,58,45,63,56,46,100,91,55,30.01,29.97,29.92,3,2,1,9,1,,0.00,4,,291
2013-2-15,65,58,51,61,55,5,100,93,12,29.95,29.88,29.83,4,2,0,15,3,,0.00,6,Rain,48
2013-2-16,57,54,50,57,54,50,100,98,88,30.04,29.80,29.71,2,2,1,12,5,,0.83,6,Rain-Thunderstorm,59
2013-2-17,66,58,50,63,55,50,100,95,67,30.01,29.89,29.77,3,2,1,7,1,,0.00,6,,81
2013-2-18,70,56,43,59,53,45,100,92,68,30.04,29.99,29.94,4,2,0,9,1,,0.00,3,Fog,287
2013-2-19,69,57,45,61,55,46,100,89,64,30.04,29.99,29.95,3,2,0,7,1,,0.00,3,Fog,302
2013-2-20,73,60,46,63,56,48,100,88,61,30.09,30.04,29.99,4,2,0,56,2,,0.00,2,Fog,274
2013-2-21,58,54,49,66,57,28,100,97,33,30.04,29.99,29.94,3,1,0,12,2,,0.20,7,Fog-Rain-Thunderstorm,53
2013-2-22,68,60,53,66,59,34,100,93,30,30.12,30.02,29.92,4,3,1,17,5,,0.01,6,Rain-Thunderstorm,58
2013-2-23,58,56,55,59,54,-9,100,95,7,30.11,30.03,29.95,3,2,1,10,3,,1.10,8,Rain-Thunderstorm,7
2013-2-24,69,60,51,64,57,54,100,92,64,30.18,30.11,30.06,4,2,1,7,1,12,0.00,6,Rain,98
2013-2-25,71,58,46,64,57,47,100,95,73,30.12,30.08,30.04,2,2,0,8,1,,0.00,6,Fog,157
2013-2-26,66,58,50,63,58,50,100,98,88,30.09,30.01,29.83,3,2,0,9,2,,0.16,7,Fog,65
2013-2-27,72,62,53,63,59,53,100,90,65,30.05,29.95,29.82,4,3,1,17,11,,0.00,4,Rain,131
2013-2-28,71,59,47,66,56,38,100,90,48,30.15,30.08,30.01,4,3,1,13,5,,0.00,2,,326